Regional Weather Roundup
Issued by NWS Charleston, WV

Home | Current Version | Previous Version | Graphics & Text | Print | Product List | Glossary On
Versions: 1 2 3 4 5 6 7 8 9 10 11 12 13 14 15 16 17 18 19 20 21 22 23 24 25 26 27 28 29 30 31 32 33 34 35 36 37 38 39 40 41 42 43 44 45 46 47 48 49 50
000
ASUS41 KRLX 160310
RWRRLX
West Virginia Regional Weather Roundup
National Weather Service Charleston WV
1100 PM EDT MON SEP 15 2014

Note: "fair" indicates few or no clouds below 12,000 feet with no
significant weather and/or obstructions to visibility.

WVZ003-160400-
Northern Panhandle of West Virginia

CITY           SKY/WX    TMP DP  RH WIND       PRES   REMARKS
WHEELING       CLOUDY    59  52  77 CALM      30.07R
$$

WVZ009-160400-
Northwest West Virginia

CITY           SKY/WX    TMP DP  RH WIND       PRES   REMARKS
PARKERSBURG    CLOUDY    58  55  90 CALM      30.10R
$$

WVZ006-160400-
Western West Virginia

CITY           SKY/WX    TMP DP  RH WIND       PRES   REMARKS
HUNTINGTON     LGT RAIN  64  60  87 SW7       30.05F
$$

WVZ015-160400-
West Central West Virginia

CITY           SKY/WX    TMP DP  RH WIND       PRES   REMARKS
CHARLESTON     NOT AVBL
$$

WVZ031-160400-
North Central West Virginia

CITY           SKY/WX    TMP DP  RH WIND       PRES   REMARKS
CLARKSBURG     MOCLDY    57  53  86 CALM      30.08R
MORGANTOWN     MOCLDY    58  51  78 CALM      30.09R
$$

WVZ035-042-045-160400-
South Central West Virginia

CITY           SKY/WX    TMP DP  RH WIND       PRES   REMARKS
BECKLEY        MOCLDY    60  55  83 NW6       30.15R
BLUEFIELD      CLOUDY    64  60  87 SW7       30.16F
LEWISBURG      MOCLDY    62  58  87 CALM      30.12F
$$

WVZ047-160400-
Northern Mountains of West Virginia

CITY           SKY/WX    TMP DP  RH WIND       PRES   REMARKS
ELKINS         CLOUDY    58  54  86 NW5       30.10R
$$

WVZ052-160400-
Eastern Panhandle of West Virginia

CITY           SKY/WX    TMP DP  RH WIND       PRES   REMARKS
MARTINSBURG    CLOUDY    60  54  80 CALM      30.04F
PETERSBURG     CLOUDY    60  58  96 CALM      30.04F
$$


USA.gov is the U.S. government's official web portal to all federal, state and local government web resources and services.